Location: Observatory
(52.1446°N, 0.4624°W)
Time: 18:52:10
(UTC+00:00)

ISS - Pass Details

Date: 27 November 2021
Orbit: 417 x 422 km, 51.6° (Epoch: 06 December)

Event Time Altitude Azimuth Distance (km) Brightness Sun altitude
Rises 17:36:43 0° 256° (WSW) 2,375 2.0 -14.7°
Reaches altitude 10° 17:38:49 10° 255° (WSW) 1,511 0.5 -15.0°
Maximum altitude 17:42:12 75° 171° (S) 443 -3.7 -15.5°
Enters shadow 17:43:26 36° 92° (E) 688 -3.2 -15.7°
